Location: Lane
(33.5226°N, 79.8788°W)
Time: 09:43:52
(UTC+00:00)

Altair - Pass Details

Date: 09 October 2022
Orbit: 1501 x 1682 km, 47.2° (Epoch: 30 November)

Event Time Altitude Azimuth Distance (km) Brightness Sun altitude
Rises 07:51:20 0° 230° (SW) 4,674 - -43.2°
Reaches altitude 10° 07:54:19 10° 230° (SW) 3,713 - -42.7°
Maximum altitude 08:03:47 88° 142° (SE) 1,590 - -40.9°
Exits shadow 08:05:08 71° 57° (ENE) 1,668 7.6 -40.6°
Drops below altitude 10° 08:13:40 10° 54° (NE) 3,868 10.3 -39.0°
Sets 08:16:51 0° 54° (NE) 4,878 11.0 -38.3°
